Welcome to the New NWS' Forecast!
Most changes are behind the scenes, but click here for differences you might notice.

Regional Weather Roundup (RWR)

Issued by Sioux Falls, SD (FSD)

                            
443 
ASUS43 KFSD 201302
RWRFSD

WEATHER ROUNDUP FOR SE SOUTH DAKOTA/SW MINNESOTA/NW IOWA
NATIONAL WEATHER SERVICE SIOUX FALLS SD
800 AM CDT MON AUG 20 2018

NOTE: "FAIR" INDICATES FEW OR NO CLOUDS BELOW 12,000 FEET WITH NO
SIGNIFICANT WEATHER AND OR OBSTRUCTIONS TO VISIBILITY.


SDZ038>040-050-052>070-201400-
SOUTHEAST SOUTH DAKOTA
  
CITY           SKY/WX    TMP DP  RH WIND       PRES   REMARKS
BROOKINGS      CLOUDY    60  59  96 N16       30.00R FOG              
CHAMBERLAIN    CLOUDY    60  56  88 N10G17    30.10R                  
HURON          CLOUDY    59  54  83 N15       30.05R                  
MADISON        CLOUDY    63  63 100 N16       29.99R FOG              
MITCHELL       CLOUDY    61  58  90 N16G24    30.01R                  
SIOUX FALLS    CLOUDY    67  64  90 N13       29.93S                  
WINNER         PTSUNNY   53  49  86 NW10      30.13R                  
YANKTON        CLOUDY    65  63  93 NW15      29.95R                  
$$

MNZ071-072-080-081-089-090-097-098-201400-
SOUTHWEST MINNESOTA
  
CITY           SKY/WX    TMP DP  RH WIND       PRES   REMARKS
FAIRMONT       LGT RAIN  66  65  96 N9        29.90S FOG              
JACKSON        RAIN      64  64 100 N12       29.91F                  
LUVERNE        CLOUDY    63  61  94 NE10      29.93R                  
MARSHALL       CLOUDY    65  64  97 N10       29.96F FOG              
MONTEVIDEO     CLOUDY    64  63  94 NE6       29.99R FOG              
PIPESTONE      CLOUDY    64  63  94 NE12G21   29.96R                  
REDWOOD FALLS  CLOUDY    64  63  96 N10G18    29.95S                  
TRACY          CLOUDY    66  66 100 NE9G18    29.96S FOG              
WINDOM         LGT RAIN  64  61  88 N15G22    29.93R                  
WORTHINGTON    CLOUDY    65  63  93 N15G24    29.93R                  
$$

IAZ001>003-012>014-020>022-031-032-NEZ013-014-SDZ071-201400-
NORTHWEST IOWA
  
CITY           SKY/WX    TMP DP  RH WIND       PRES   REMARKS
CHEROKEE       LGT RAIN  65  65 100 N13       29.84S                  
DENISON        RAIN      64  64 100 N18G29    29.75S                  
ESTHERVILLE    RAIN      65  65 100 N13       29.88S FOG              
ORANGE CITY    LGT RAIN  66  64  94 NE7       29.88S                  
SHELDON        CLOUDY    66  66 100 NE14G21   29.88R                  
SIOUX CITY     CLOUDY    66  64  93 N16       29.84S                  
SPENCER        LGT RAIN  67  65  93 MISG      29.87S                  
STORM LAKE     RAIN      64  64 100 N18G26    29.81F                  
$$
 
ABBREVIATIONS USED IN REMARKS
   TC - TEMPERATURE IN CELSIUS
  WCI - WIND CHILL INDEX
   HX - HEAT INDEX
  VSB - VISIBILITY